Time,TemperatureF,DewpointF,PressureIn,WindDirection,WindDirectionDegrees,WindSpeedMPH,WindSpeedGustMPH,Humidity,HourlyPrecipIn,Conditions,Clouds,dailyrainin,SoftwareType,DateUTC
2013-06-10 00:03:00,62.4,61.0,30.03,West,270,0.0,2.0,95,0.00,,,0.00,meteohub,2013-06-10 05:03:00,
2013-06-10 00:08:00,62.2,60.8,30.02,SW,225,1.0,1.0,95,0.00,,,0.00,meteohub,2013-06-10 05:08:00,
2013-06-10 00:13:00,62.2,60.8,30.02,SW,225,0.0,0.0,95,0.00,,,0.00,meteohub,2013-06-10 05:13:00,
2013-06-10 00:18:00,61.9,60.4,30.03,SW,225,0.0,1.0,95,0.00,,,0.00,meteohub,2013-06-10 05:18:00,
2013-06-10 00:23:00,61.7,60.3,30.03,SW,225,0.0,1.0,95,0.00,,,0.00,meteohub,2013-06-10 05:23:00,
2013-06-10 00:28:00,61.5,60.1,30.02,SW,225,0.0,1.0,95,0.00,,,0.00,meteohub,2013-06-10 05:28:00,
2013-06-10 00:33:00,61.2,59.7,30.02,SW,225,0.0,0.0,95,0.00,,,0.00,meteohub,2013-06-10 05:33:00,
2013-06-10 00:38:00,61.0,59.5,30.02,SW,225,0.0,0.0,95,0.00,,,0.00,meteohub,2013-06-10 05:38:00,
2013-06-10 00:43:00,60.8,59.4,30.03,SW,225,0.0,0.0,95,0.00,,,0.00,meteohub,2013-06-10 05:43:00,
2013-06-10 00:48:00,60.6,59.5,30.02,SW,225,0.0,0.0,96,0.00,,,0.00,meteohub,2013-06-10 05:48:00,
2013-06-10 00:54:00,60.4,59.5,30.03,SW,225,0.0,0.0,97,0.00,,,0.00,meteohub,2013-06-10 05:54:00,
2013-06-10 00:59:00,60.3,59.4,30.02,West,270,0.0,0.0,97,0.00,,,0.00,meteohub,2013-06-10 05:59:00,
2013-06-10 01:04:00,60.3,59.4,30.02,West,270,0.0,0.0,97,0.00,,,0.00,meteohub,2013-06-10 06:04:00,
2013-06-10 01:09:00,59.9,59.0,30.02,North,0,0.0,0.0,97,0.00,,,0.00,meteohub,2013-06-10 06:09:00,
2013-06-10 01:14:00,59.7,58.8,30.02,North,0,0.0,0.0,97,0.00,,,0.00,meteohub,2013-06-10 06:14:00,
2013-06-10 01:19:00,59.5,58.6,30.02,SE,135,0.0,0.0,97,0.00,,,0.00,meteohub,2013-06-10 06:19:00,
2013-06-10 01:24:00,59.4,58.5,30.02,SE,135,0.0,0.0,97,0.00,,,0.00,meteohub,2013-06-10 06:24:00,
2013-06-10 01:29:00,59.2,58.3,30.03,SE,135,0.0,0.0,97,0.00,,,0.00,meteohub,2013-06-10 06:29:00,
2013-06-10 01:34:00,59.0,58.1,30.03,SE,135,0.0,0.0,97,0.00,,,0.00,meteohub,2013-06-10 06:34:00,
2013-06-10 01:39:00,58.8,58.3,30.02,SE,135,0.0,1.0,98,0.00,,,0.00,meteohub,2013-06-10 06:39:00,
2013-06-10 01:44:00,58.6,58.1,30.02,SE,135,0.0,1.0,98,0.00,,,0.00,meteohub,2013-06-10 06:44:00,
2013-06-10 01:49:00,58.6,58.1,30.02,SE,135,0.0,1.0,98,0.00,,,0.00,meteohub,2013-06-10 06:49:00,
2013-06-10 01:54:00,58.5,58.1,30.02,SE,135,0.0,0.0,99,0.00,,,0.00,meteohub,2013-06-10 06:54:00,
2013-06-10 01:59:00,58.6,58.3,30.02,SW,225,0.0,0.0,99,0.00,,,0.00,meteohub,2013-06-10 06:59:00,
2013-06-10 02:05:00,58.8,58.5,30.02,SE,135,0.0,1.0,99,0.00,,,0.00,meteohub,2013-06-10 07:05:00,
2013-06-10 02:10:00,58.8,58.5,30.02,SE,135,1.0,1.0,99,0.00,,,0.00,meteohub,2013-06-10 07:10:00,
2013-06-10 02:15:00,58.8,58.5,30.02,SE,135,0.0,1.0,99,0.00,,,0.00,meteohub,2013-06-10 07:15:00,
2013-06-10 02:20:00,58.8,58.5,30.02,SE,135,0.0,1.0,99,0.00,,,0.00,meteohub,2013-06-10 07:20:00,
2013-06-10 02:25:00,58.8,58.5,30.02,SE,135,0.0,1.0,99,0.00,,,0.00,meteohub,2013-06-10 07:25:00,
2013-06-10 02:30:00,59.0,58.6,30.02,SE,135,0.0,0.0,99,0.00,,,0.00,meteohub,2013-06-10 07:30:00,
2013-06-10 02:35:00,59.0,58.6,30.02,West,270,0.0,1.0,99,0.00,,,0.00,meteohub,2013-06-10 07:35:00,
2013-06-10 02:40:00,59.2,58.8,30.02,East,90,0.0,1.0,99,0.00,,,0.00,meteohub,2013-06-10 07:40:00,
2013-06-10 02:45:00,59.2,58.8,30.02,NE,45,0.0,1.0,99,0.00,,,0.00,meteohub,2013-06-10 07:45:00,
2013-06-10 02:50:00,59.4,59.0,30.02,NE,45,0.0,0.0,99,0.00,,,0.00,meteohub,2013-06-10 07:50:00,
2013-06-10 02:55:00,59.4,59.0,30.02,NE,45,0.0,0.0,99,0.00,,,0.00,meteohub,2013-06-10 07:55:00,
2013-06-10 03:00:00,59.5,59.2,30.02,NE,45,0.0,0.0,99,0.00,,,0.00,meteohub,2013-06-10 08:00:00,
2013-06-10 03:06:00,59.5,59.2,30.02,NE,45,0.0,0.0,99,0.00,,,0.00,meteohub,2013-06-10 08:06:00,
2013-06-10 03:11:00,59.5,59.2,30.01,NE,45,0.0,0.0,99,0.00,,,0.00,meteohub,2013-06-10 08:11:00,
2013-06-10 03:16:00,59.5,59.2,30.01,NE,45,0.0,0.0,99,0.00,,,0.00,meteohub,2013-06-10 08:16:00,
2013-06-10 03:21:00,59.5,59.2,30.01,NE,45,0.0,0.0,99,0.00,,,0.00,meteohub,2013-06-10 08:21:00,
2013-06-10 03:26:00,59.5,59.2,30.01,NE,45,0.0,0.0,99,0.00,,,0.00,meteohub,2013-06-10 08:26:00,
2013-06-10 03:31:00,59.5,59.2,30.01,NE,45,0.0,0.0,99,0.00,,,0.00,meteohub,2013-06-10 08:31:00,
2013-06-10 03:36:00,59.4,59.0,30.02,East,90,0.0,0.0,99,0.00,,,0.00,meteohub,2013-06-10 08:36:00,
2013-06-10 03:41:00,59.4,59.0,30.01,South,180,0.0,0.0,99,0.00,,,0.00,meteohub,2013-06-10 08:41:00,
2013-06-10 03:46:00,59.2,58.8,30.01,East,90,0.0,0.0,99,0.00,,,0.00,meteohub,2013-06-10 08:46:00,
2013-06-10 03:51:00,59.2,58.8,30.01,East,90,0.0,0.0,99,0.00,,,0.00,meteohub,2013-06-10 08:51:00,
2013-06-10 03:56:00,59.2,58.8,30.01,North,0,0.0,0.0,99,0.00,,,0.00,meteohub,2013-06-10 08:56:00,
2013-06-10 04:02:00,59.2,58.8,30.02,North,0,0.0,0.0,99,0.00,,,0.00,meteohub,2013-06-10 09:02:00,
2013-06-10 04:07:00,59.2,58.8,30.01,North,0,0.0,0.0,99,0.00,,,0.00,meteohub,2013-06-10 09:07:00,
2013-06-10 04:12:00,59.2,58.8,30.02,North,0,0.0,0.0,99,0.00,,,0.00,meteohub,2013-06-10 09:12:00,
2013-06-10 04:17:00,59.2,58.8,30.01,North,0,0.0,0.0,99,0.00,,,0.00,meteohub,2013-06-10 09:17:00,
2013-06-10 04:22:00,59.4,59.0,30.01,North,0,0.0,0.0,99,0.00,,,0.00,meteohub,2013-06-10 09:22:00,
2013-06-10 04:27:00,59.4,59.0,30.01,North,0,0.0,0.0,99,0.00,,,0.00,meteohub,2013-06-10 09:27:00,
2013-06-10 04:32:00,59.4,59.0,30.01,SW,225,0.0,0.0,99,0.00,,,0.00,meteohub,2013-06-10 09:32:00,
2013-06-10 04:37:00,59.4,59.0,30.02,SW,225,0.0,0.0,99,0.00,,,0.00,meteohub,2013-06-10 09:37:00,
2013-06-10 04:42:00,59.5,59.2,30.02,South,180,0.0,0.0,99,0.00,,,0.00,meteohub,2013-06-10 09:42:00,
2013-06-10 04:47:00,59.4,59.0,30.01,South,180,0.0,0.0,99,0.00,,,0.00,meteohub,2013-06-10 09:47:00,
2013-06-10 04:52:00,59.4,59.0,30.02,South,180,0.0,0.0,99,0.00,,,0.00,meteohub,2013-06-10 09:52:00,
2013-06-10 04:57:00,59.4,59.0,30.02,South,180,0.0,0.0,99,0.00,,,0.00,meteohub,2013-06-10 09:57:00,
2013-06-10 05:02:00,59.4,59.0,30.02,South,180,0.0,0.0,99,0.00,,,0.00,meteohub,2013-06-10 10:02:00,
2013-06-10 05:07:00,59.4,59.0,30.02,South,180,0.0,0.0,99,0.00,,,0.00,meteohub,2013-06-10 10:07:00,
2013-06-10 05:12:00,59.4,59.0,30.02,South,180,0.0,0.0,99,0.00,,,0.00,meteohub,2013-06-10 10:12:00,
2013-06-10 05:17:00,59.5,59.2,30.02,South,180,0.0,0.0,99,0.00,,,0.00,meteohub,2013-06-10 10:17:00,
2013-06-10 05:22:00,59.5,59.2,30.02,South,180,0.0,0.0,99,0.00,,,0.00,meteohub,2013-06-10 10:22:00,
2013-06-10 05:27:00,59.5,59.2,30.02,South,180,0.0,0.0,99,0.00,,,0.00,meteohub,2013-06-10 10:27:00,
2013-06-10 05:32:00,59.5,59.2,30.02,South,180,0.0,0.0,99,0.00,,,0.00,meteohub,2013-06-10 10:32:00,
2013-06-10 05:38:00,59.5,59.2,30.02,South,180,0.0,0.0,99,0.00,,,0.00,meteohub,2013-06-10 10:38:00,
2013-06-10 05:43:00,59.5,59.2,30.02,South,180,0.0,0.0,99,0.00,,,0.00,meteohub,2013-06-10 10:43:00,
2013-06-10 05:48:00,59.5,59.2,30.02,South,180,0.0,0.0,99,0.00,,,0.00,meteohub,2013-06-10 10:48:00,
2013-06-10 05:53:00,59.5,59.2,30.02,South,180,0.0,0.0,99,0.00,,,0.00,meteohub,2013-06-10 10:53:00,
2013-06-10 05:58:00,59.7,59.4,30.03,South,180,0.0,0.0,99,0.00,,,0.00,meteohub,2013-06-10 10:58:00,
2013-06-10 06:03:00,59.7,59.4,30.02,South,180,0.0,0.0,99,0.00,,,0.00,meteohub,2013-06-10 11:03:00,
2013-06-10 06:08:00,59.7,59.4,30.02,South,180,0.0,0.0,99,0.00,,,0.00,meteohub,2013-06-10 11:08:00,
2013-06-10 06:13:00,59.9,59.5,30.02,NE,45,0.0,0.0,99,0.00,,,0.00,meteohub,2013-06-10 11:13:00,
2013-06-10 06:18:00,60.1,59.7,30.02,NE,45,0.0,0.0,99,0.00,,,0.00,meteohub,2013-06-10 11:18:00,
2013-06-10 06:23:00,60.3,59.9,30.02,NE,45,0.0,0.0,99,0.00,,,0.00,meteohub,2013-06-10 11:23:00,
2013-06-10 06:29:00,60.4,60.1,30.02,South,180,0.0,0.0,99,0.00,,,0.00,meteohub,2013-06-10 11:29:00,
2013-06-10 06:34:00,60.6,60.3,30.03,SW,225,0.0,0.0,99,0.00,,,0.00,meteohub,2013-06-10 11:34:00,
2013-06-10 06:39:00,60.8,60.3,30.02,South,180,0.0,0.0,98,0.00,,,0.00,meteohub,2013-06-10 11:39:00,
2013-06-10 06:44:00,61.0,60.4,30.03,SW,225,0.0,0.0,98,0.00,,,0.00,meteohub,2013-06-10 11:44:00,
2013-06-10 06:49:00,61.2,60.6,30.03,SW,225,0.0,0.0,98,0.00,,,0.00,meteohub,2013-06-10 11:49:00,
2013-06-10 06:54:00,61.2,60.6,30.03,West,270,0.0,0.0,98,0.00,,,0.00,meteohub,2013-06-10 11:54:00,
2013-06-10 06:59:00,61.3,60.8,30.03,SE,135,0.0,0.0,98,0.00,,,0.00,meteohub,2013-06-10 11:59:00,
2013-06-10 07:04:00,61.3,60.8,30.03,NW,315,0.0,0.0,98,0.00,,,0.00,meteohub,2013-06-10 12:04:00,
2013-06-10 07:09:00,61.5,61.0,30.03,West,270,0.0,0.0,98,0.00,,,0.00,meteohub,2013-06-10 12:09:00,
2013-06-10 07:14:00,61.7,61.2,30.03,West,270,0.0,0.0,98,0.00,,,0.00,meteohub,2013-06-10 12:14:00,
2013-06-10 07:19:00,61.7,61.2,30.03,NE,45,0.0,0.0,98,0.00,,,0.00,meteohub,2013-06-10 12:19:00,
2013-06-10 07:24:00,61.9,61.3,30.02,NE,45,0.0,0.0,98,0.00,,,0.00,meteohub,2013-06-10 12:24:00,
2013-06-10 07:29:00,62.1,61.5,30.03,NE,45,1.0,0.0,98,0.00,,,0.00,meteohub,2013-06-10 12:29:00,
2013-06-10 07:34:00,62.1,61.5,30.03,NE,45,0.0,1.0,98,0.00,,,0.00,meteohub,2013-06-10 12:34:00,
2013-06-10 07:40:00,62.1,61.5,30.03,NE,45,0.0,1.0,98,0.00,,,0.00,meteohub,2013-06-10 12:40:00,
2013-06-10 07:45:00,62.1,61.5,30.03,NE,45,0.0,1.0,98,0.00,,,0.00,meteohub,2013-06-10 12:45:00,
2013-06-10 07:50:00,62.2,61.7,30.03,NW,315,1.0,1.0,98,0.00,,,0.00,meteohub,2013-06-10 12:50:00,
2013-06-10 07:55:00,62.2,61.7,30.03,SW,225,0.0,1.0,98,0.00,,,0.00,meteohub,2013-06-10 12:55:00,
2013-06-10 08:00:00,62.2,61.7,30.04,North,0,0.0,1.0,98,0.00,,,0.00,meteohub,2013-06-10 13:00:00,
2013-06-10 08:05:00,62.2,61.7,30.03,North,0,1.0,1.0,98,0.00,,,0.00,meteohub,2013-06-10 13:05:00,
2013-06-10 08:10:00,62.2,61.7,30.04,West,270,0.0,1.0,98,0.00,,,0.00,meteohub,2013-06-10 13:10:00,
2013-06-10 08:15:00,62.2,61.7,30.04,NW,315,0.0,1.0,98,0.00,,,0.00,meteohub,2013-06-10 13:15:00,
2013-06-10 08:21:00,62.4,61.9,30.04,SE,135,2.0,2.0,98,0.00,,,0.00,meteohub,2013-06-10 13:21:00,
2013-06-10 08:26:00,62.6,61.7,30.04,North,0,2.0,2.0,97,0.00,,,0.00,meteohub,2013-06-10 13:26:00,
2013-06-10 08:31:00,62.8,61.9,30.05,NE,45,2.0,2.0,97,0.00,,,0.00,meteohub,2013-06-10 13:31:00,
2013-06-10 08:36:00,62.8,61.9,30.05,SE,135,2.0,3.0,97,0.00,,,0.00,meteohub,2013-06-10 13:36:00,
2013-06-10 08:41:00,63.0,62.1,30.05,SE,135,2.0,3.0,97,0.00,,,0.00,meteohub,2013-06-10 13:41:00,
2013-06-10 08:46:00,63.1,62.2,30.05,West,270,2.0,3.0,97,0.00,,,0.00,meteohub,2013-06-10 13:46:00,
2013-06-10 08:51:00,63.3,62.4,30.06,SE,135,4.0,4.0,97,0.00,,,0.00,meteohub,2013-06-10 13:51:00,
2013-06-10 08:56:00,63.3,62.4,30.06,SE,135,3.0,4.0,97,0.00,,,0.00,meteohub,2013-06-10 13:56:00,
2013-06-10 09:01:00,63.3,62.4,30.06,SE,135,2.0,4.0,97,0.00,,,0.00,meteohub,2013-06-10 14:01:00,
2013-06-10 09:06:00,63.3,62.4,30.06,SE,135,2.0,4.0,97,0.00,,,0.00,meteohub,2013-06-10 14:06:00,
2013-06-10 09:11:00,63.7,62.8,30.06,SE,135,3.0,3.0,97,0.00,,,0.00,meteohub,2013-06-10 14:11:00,
2013-06-10 09:16:00,63.7,62.8,30.06,SE,135,3.0,3.0,97,0.00,,,0.00,meteohub,2013-06-10 14:16:00,
2013-06-10 09:21:00,63.9,63.0,30.06,SW,225,2.0,3.0,97,0.00,,,0.00,meteohub,2013-06-10 14:21:00,
2013-06-10 09:26:00,63.9,63.0,30.06,East,90,2.0,3.0,97,0.00,,,0.00,meteohub,2013-06-10 14:26:00,
2013-06-10 09:31:00,64.0,63.1,30.06,SW,225,2.0,4.0,97,0.00,,,0.00,meteohub,2013-06-10 14:31:00,
2013-06-10 09:37:00,64.0,63.1,30.07,East,90,4.0,4.0,97,0.00,,,0.00,meteohub,2013-06-10 14:37:00,
2013-06-10 09:42:00,64.0,63.1,30.06,East,90,2.0,4.0,97,0.00,,,0.00,meteohub,2013-06-10 14:42:00,
2013-06-10 09:47:00,64.2,63.3,30.06,SE,135,2.0,4.0,97,0.00,,,0.00,meteohub,2013-06-10 14:47:00,
2013-06-10 09:52:00,64.2,63.3,30.06,SE,135,2.0,4.0,97,0.00,,,0.00,meteohub,2013-06-10 14:52:00,
2013-06-10 09:57:00,64.4,63.9,30.07,SW,225,2.0,4.0,98,0.00,,,0.00,meteohub,2013-06-10 14:57:00,
2013-06-10 10:02:00,64.6,64.0,30.07,SW,225,2.0,4.0,98,0.00,,,0.00,meteohub,2013-06-10 15:02:00,
2013-06-10 10:07:00,64.9,64.4,30.06,West,270,3.0,4.0,98,0.00,,,0.00,meteohub,2013-06-10 15:07:00,
2013-06-10 10:12:00,65.3,64.4,30.06,South,180,4.0,6.0,97,0.00,,,0.00,meteohub,2013-06-10 15:12:00,
2013-06-10 10:17:00,65.3,64.0,30.06,West,270,3.0,6.0,96,0.00,,,0.00,meteohub,2013-06-10 15:17:00,
2013-06-10 10:22:00,65.3,63.9,30.06,WNW,293,2.0,6.0,95,0.00,,,0.00,meteohub,2013-06-10 15:22:00,
2013-06-10 10:27:00,65.5,64.0,30.06,SE,135,3.0,4.0,95,0.00,,,0.00,meteohub,2013-06-10 15:27:00,
2013-06-10 10:32:00,66.0,64.6,30.06,East,90,2.0,3.0,95,0.00,,,0.00,meteohub,2013-06-10 15:32:00,
2013-06-10 10:38:00,66.6,64.4,30.05,West,270,2.0,4.0,93,0.00,,,0.00,meteohub,2013-06-10 15:38:00,
2013-06-10 10:43:00,66.4,63.7,30.06,West,270,3.0,5.0,91,0.00,,,0.00,meteohub,2013-06-10 15:43:00,
2013-06-10 10:48:00,66.4,62.8,30.06,SW,225,4.0,5.0,88,0.00,,,0.00,meteohub,2013-06-10 15:48:00,
2013-06-10 10:53:00,66.6,62.6,30.06,West,270,2.0,5.0,87,0.00,,,0.00,meteohub,2013-06-10 15:53:00,
2013-06-10 10:58:00,66.4,62.1,30.06,West,270,2.0,4.0,86,0.00,,,0.00,meteohub,2013-06-10 15:58:00,
2013-06-10 11:03:00,66.6,62.2,30.06,West,270,2.0,4.0,86,0.00,,,0.00,meteohub,2013-06-10 16:03:00,
2013-06-10 11:08:00,66.6,62.2,30.06,West,270,2.0,4.0,86,0.00,,,0.00,meteohub,2013-06-10 16:08:00,
2013-06-10 11:13:00,66.7,62.4,30.06,NW,315,2.0,4.0,86,0.00,,,0.00,meteohub,2013-06-10 16:13:00,
2013-06-10 11:18:00,66.9,62.6,30.06,NW,315,1.0,4.0,86,0.00,,,0.00,meteohub,2013-06-10 16:18:00,
2013-06-10 11:23:00,67.3,63.0,30.06,NW,315,3.0,4.0,86,0.00,,,0.00,meteohub,2013-06-10 16:23:00,
2013-06-10 11:28:00,67.5,62.8,30.06,SE,135,2.0,3.0,85,0.00,,,0.00,meteohub,2013-06-10 16:28:00,
2013-06-10 11:33:00,68.0,63.0,30.06,SE,135,3.0,5.0,84,0.00,,,0.00,meteohub,2013-06-10 16:33:00,
2013-06-10 11:38:00,68.2,63.1,30.06,SW,225,3.0,5.0,84,0.00,,,0.00,meteohub,2013-06-10 16:38:00,
2013-06-10 11:43:00,68.0,62.6,30.06,South,180,2.0,5.0,83,0.00,,,0.00,meteohub,2013-06-10 16:43:00,
2013-06-10 11:48:00,68.0,62.6,30.06,SW,225,2.0,4.0,83,0.00,,,0.00,meteohub,2013-06-10 16:48:00,
2013-06-10 11:53:00,67.8,62.8,30.06,West,270,2.0,4.0,84,0.00,,,0.00,meteohub,2013-06-10 16:53:00,
2013-06-10 11:58:00,68.0,62.6,30.06,SW,225,2.0,4.0,83,0.00,,,0.00,meteohub,2013-06-10 16:58:00,
2013-06-10 12:04:00,68.5,63.1,30.06,East,90,2.0,4.0,83,0.00,,,0.00,meteohub,2013-06-10 17:04:00,
2013-06-10 12:09:00,68.7,63.0,30.06,SSW,203,2.0,4.0,82,0.00,,,0.00,meteohub,2013-06-10 17:09:00,
2013-06-10 12:14:00,68.7,63.0,30.06,SW,225,3.0,4.0,82,0.00,,,0.00,meteohub,2013-06-10 17:14:00,
2013-06-10 12:19:00,68.7,62.6,30.06,NW,315,4.0,4.0,81,0.00,,,0.00,meteohub,2013-06-10 17:19:00,
2013-06-10 12:24:00,68.5,62.4,30.06,West,270,4.0,4.0,81,0.00,,,0.00,meteohub,2013-06-10 17:24:00,
2013-06-10 12:29:00,68.5,62.1,30.06,West,270,4.0,4.0,80,0.00,,,0.00,meteohub,2013-06-10 17:29:00,
2013-06-10 12:34:00,68.4,61.9,30.05,SW,225,3.0,5.0,80,0.00,,,0.00,meteohub,2013-06-10 17:34:00,
2013-06-10 12:39:00,68.5,62.1,30.05,West,270,2.0,5.0,80,0.00,,,0.00,meteohub,2013-06-10 17:39:00,
2013-06-10 12:44:00,69.1,63.0,30.05,South,180,2.0,5.0,81,0.00,,,0.00,meteohub,2013-06-10 17:44:00,
2013-06-10 12:49:00,69.4,62.6,30.05,NW,315,4.0,4.0,79,0.00,,,0.00,meteohub,2013-06-10 17:49:00,
2013-06-10 12:54:00,69.8,62.6,30.05,West,270,2.0,5.0,78,0.00,,,0.00,meteohub,2013-06-10 17:54:00,
2013-06-10 12:59:00,70.7,63.9,30.05,East,90,2.0,5.0,79,0.00,,,0.00,meteohub,2013-06-10 17:59:00,
2013-06-10 13:05:00,70.7,63.9,30.05,South,180,2.0,5.0,79,0.00,,,0.00,meteohub,2013-06-10 18:05:00,
2013-06-10 13:10:00,70.7,62.8,30.05,South,180,3.0,4.0,76,0.00,,,0.00,meteohub,2013-06-10 18:10:00,
2013-06-10 13:15:00,70.7,62.8,30.05,NE,45,3.0,4.0,76,0.00,,,0.00,meteohub,2013-06-10 18:15:00,
2013-06-10 13:20:00,71.6,63.3,30.05,NW,315,1.0,4.0,75,0.00,,,0.00,meteohub,2013-06-10 18:20:00,
2013-06-10 13:25:00,71.4,62.8,30.05,West,270,7.0,7.0,74,0.00,,,0.00,meteohub,2013-06-10 18:25:00,
2013-06-10 13:30:00,70.9,62.2,30.05,North,0,1.0,7.0,74,0.00,,,0.00,meteohub,2013-06-10 18:30:00,
2013-06-10 13:35:00,71.1,63.1,30.05,West,270,2.0,7.0,76,0.00,,,0.00,meteohub,2013-06-10 18:35:00,
2013-06-10 13:40:00,71.1,62.4,30.05,West,270,5.0,7.0,74,0.00,,,0.00,meteohub,2013-06-10 18:40:00,
2013-06-10 13:45:00,70.7,62.4,30.05,NW,315,2.0,5.0,75,0.00,,,0.00,meteohub,2013-06-10 18:45:00,
2013-06-10 13:50:00,70.3,62.1,30.05,South,180,2.0,5.0,75,0.00,,,0.00,meteohub,2013-06-10 18:50:00,
2013-06-10 13:55:00,70.3,62.4,30.05,NW,315,3.0,5.0,76,0.00,,,0.00,meteohub,2013-06-10 18:55:00,
2013-06-10 14:00:00,70.5,62.6,30.05,SW,225,2.0,4.0,76,0.00,,,0.00,meteohub,2013-06-10 19:00:00,
2013-06-10 14:06:00,71.1,62.8,30.04,West,270,2.0,4.0,75,0.00,,,0.00,meteohub,2013-06-10 19:06:00,
2013-06-10 14:11:00,70.9,61.9,30.05,North,0,2.0,4.0,73,0.00,,,0.00,meteohub,2013-06-10 19:11:00,
2013-06-10 14:16:00,71.2,63.0,30.04,North,0,4.0,4.0,75,0.00,,,0.00,meteohub,2013-06-10 19:16:00,
2013-06-10 14:21:00,71.8,63.0,30.05,NW,315,0.0,4.0,74,0.00,,,0.00,meteohub,2013-06-10 19:21:00,
2013-06-10 14:26:00,71.6,62.4,30.04,NW,315,1.0,4.0,73,0.00,,,0.00,meteohub,2013-06-10 19:26:00,
2013-06-10 14:31:00,71.8,62.2,30.04,North,0,0.0,4.0,72,0.00,,,0.00,meteohub,2013-06-10 19:31:00,
2013-06-10 14:36:00,72.5,63.0,30.04,South,180,2.0,3.0,72,0.00,,,0.00,meteohub,2013-06-10 19:36:00,
2013-06-10 14:41:00,72.7,62.2,30.04,West,270,5.0,5.0,70,0.00,,,0.00,meteohub,2013-06-10 19:41:00,
2013-06-10 14:46:00,72.0,62.1,30.04,East,90,2.0,5.0,71,0.00,,,0.00,meteohub,2013-06-10 19:46:00,
2013-06-10 14:51:00,72.5,63.0,30.04,SW,225,3.0,5.0,72,0.00,,,0.00,meteohub,2013-06-10 19:51:00,
2013-06-10 14:56:00,72.7,62.8,30.04,South,180,2.0,5.0,71,0.00,,,0.00,meteohub,2013-06-10 19:56:00,
2013-06-10 15:01:00,72.5,62.2,30.04,SW,225,2.0,4.0,70,0.00,,,0.00,meteohub,2013-06-10 20:01:00,
2013-06-10 15:07:00,72.5,62.2,30.04,SW,225,2.0,3.0,70,0.00,,,0.00,meteohub,2013-06-10 20:07:00,
2013-06-10 15:12:00,72.7,62.2,30.04,East,90,3.0,3.0,70,0.00,,,0.00,meteohub,2013-06-10 20:12:00,
2013-06-10 15:17:00,73.2,62.4,30.04,SE,135,3.0,4.0,69,0.00,,,0.00,meteohub,2013-06-10 20:17:00,
2013-06-10 15:22:00,73.2,62.4,30.04,ESE,113,2.0,4.0,69,0.00,,,0.00,meteohub,2013-06-10 20:22:00,
2013-06-10 15:27:00,73.4,62.2,30.05,ENE,68,4.0,5.0,68,0.00,,,0.00,meteohub,2013-06-10 20:27:00,
2013-06-10 15:32:00,74.3,63.1,30.04,East,90,4.0,7.0,68,0.00,,,0.00,meteohub,2013-06-10 20:32:00,
2013-06-10 15:37:00,75.2,63.1,30.04,South,180,3.0,8.0,66,0.00,,,0.00,meteohub,2013-06-10 20:37:00,
2013-06-10 15:42:00,75.6,63.0,30.03,South,180,4.0,8.0,65,0.00,,,0.00,meteohub,2013-06-10 20:42:00,
2013-06-10 15:47:00,75.2,62.6,30.04,SE,135,3.0,8.0,65,0.00,,,0.00,meteohub,2013-06-10 20:47:00,
2013-06-10 15:52:00,75.2,62.6,30.04,SE,135,5.0,7.0,65,0.00,,,0.00,meteohub,2013-06-10 20:52:00,
2013-06-10 15:58:00,75.7,63.1,30.04,SW,225,2.0,6.0,65,0.00,,,0.00,meteohub,2013-06-10 20:58:00,
2013-06-10 16:03:00,76.1,62.6,30.04,East,90,4.0,5.0,63,0.00,,,0.00,meteohub,2013-06-10 21:03:00,
2013-06-10 16:08:00,75.9,62.4,30.03,SE,135,2.0,5.0,63,0.00,,,0.00,meteohub,2013-06-10 21:08:00,
2013-06-10 16:13:00,76.1,61.7,30.04,NE,45,3.0,6.0,61,0.00,,,0.00,meteohub,2013-06-10 21:13:00,
2013-06-10 16:18:00,76.3,62.2,30.03,West,270,5.0,8.0,62,0.00,,,0.00,meteohub,2013-06-10 21:18:00,
2013-06-10 16:23:00,76.6,61.7,30.03,SE,135,3.0,8.0,60,0.00,,,0.00,meteohub,2013-06-10 21:23:00,
2013-06-10 16:28:00,76.8,62.4,30.03,North,0,2.0,8.0,61,0.00,,,0.00,meteohub,2013-06-10 21:28:00,
2013-06-10 16:33:00,77.5,63.0,30.03,South,180,3.0,8.0,61,0.00,,,0.00,meteohub,2013-06-10 21:33:00,
2013-06-10 16:38:00,77.4,62.4,30.03,West,270,4.0,8.0,60,0.00,,,0.00,meteohub,2013-06-10 21:38:00,
2013-06-10 16:43:00,76.6,62.2,30.02,East,90,2.0,6.0,61,0.00,,,0.00,meteohub,2013-06-10 21:43:00,
2013-06-10 16:48:00,75.7,61.9,30.03,SW,225,2.0,4.0,62,0.00,,,0.00,meteohub,2013-06-10 21:48:00,
2013-06-10 16:54:00,75.4,61.5,30.03,South,180,2.0,5.0,62,0.00,,,0.00,meteohub,2013-06-10 21:54:00,
2013-06-10 16:59:00,75.2,61.3,30.03,SW,225,2.0,5.0,62,0.00,,,0.00,meteohub,2013-06-10 21:59:00,
2013-06-10 17:04:00,75.4,61.5,30.03,West,270,5.0,5.0,62,0.00,,,0.00,meteohub,2013-06-10 22:04:00,
2013-06-10 17:09:00,76.3,61.0,30.03,East,90,4.0,5.0,59,0.00,,,0.00,meteohub,2013-06-10 22:09:00,
2013-06-10 17:14:00,75.4,60.4,30.03,East,90,5.0,5.0,60,0.00,,,0.00,meteohub,2013-06-10 22:14:00,
2013-06-10 17:19:00,74.7,61.2,30.03,ESE,113,3.0,5.0,63,0.00,,,0.00,meteohub,2013-06-10 22:19:00,
2013-06-10 17:24:00,74.5,61.0,30.04,SSE,158,3.0,6.0,63,0.00,,,0.00,meteohub,2013-06-10 22:24:00,
2013-06-10 17:29:00,74.8,61.9,30.03,South,180,5.0,6.0,64,0.00,,,0.00,meteohub,2013-06-10 22:29:00,
2013-06-10 17:34:00,75.7,61.9,30.03,NE,45,4.0,6.0,62,0.00,,,0.00,meteohub,2013-06-10 22:34:00,
2013-06-10 17:39:00,76.5,62.1,30.04,East,90,6.0,7.0,61,0.00,,,0.00,meteohub,2013-06-10 22:39:00,
2013-06-10 17:44:00,76.1,61.2,30.04,SE,135,4.0,7.0,60,0.00,,,0.00,meteohub,2013-06-10 22:44:00,
2013-06-10 17:49:00,76.3,61.9,30.04,SE,135,3.0,7.0,61,0.00,,,0.00,meteohub,2013-06-10 22:49:00,
2013-06-10 17:55:00,76.5,62.1,30.04,East,90,3.0,6.0,61,0.00,,,0.00,meteohub,2013-06-10 22:55:00,
2013-06-10 18:00:00,76.6,62.2,30.04,South,180,2.0,6.0,61,0.00,,,0.00,meteohub,2013-06-10 23:00:00,
2013-06-10 18:05:00,77.0,62.1,30.04,South,180,3.0,6.0,60,0.00,,,0.00,meteohub,2013-06-10 23:05:00,
2013-06-10 18:10:00,76.6,62.2,30.04,West,270,1.0,6.0,61,0.00,,,0.00,meteohub,2013-06-10 23:10:00,
2013-06-10 18:15:00,76.1,61.7,30.04,NE,45,5.0,5.0,61,0.00,,,0.00,meteohub,2013-06-10 23:15:00,
2013-06-10 18:20:00,75.2,61.3,30.04,SE,135,5.0,6.0,62,0.00,,,0.00,meteohub,2013-06-10 23:20:00,
2013-06-10 18:25:00,74.8,61.3,30.03,East,90,2.0,6.0,63,0.00,,,0.00,meteohub,2013-06-10 23:25:00,
2013-06-10 18:30:00,74.8,61.3,30.03,NE,45,3.0,7.0,63,0.00,,,0.00,meteohub,2013-06-10 23:30:00,
2013-06-10 18:35:00,74.7,61.2,30.03,South,180,3.0,7.0,63,0.00,,,0.00,meteohub,2013-06-10 23:35:00,
2013-06-10 18:40:00,74.5,61.0,30.03,SE,135,4.0,8.0,63,0.00,,,0.00,meteohub,2013-06-10 23:40:00,
2013-06-10 18:45:00,74.3,61.3,30.03,SE,135,6.0,8.0,64,0.00,,,0.00,meteohub,2013-06-10 23:45:00,
2013-06-10 18:50:00,74.1,61.2,30.02,West,270,4.0,8.0,64,0.00,,,0.00,meteohub,2013-06-10 23:50:00,
2013-06-10 18:56:00,74.1,61.2,30.03,SE,135,5.0,6.0,64,0.00,,,0.00,meteohub,2013-06-10 23:56:00,
2013-06-10 19:01:00,73.9,61.0,30.03,East,90,4.0,6.0,64,0.00,,,0.00,meteohub,2013-06-11 00:01:00,
2013-06-10 19:06:00,73.9,61.0,30.03,East,90,4.0,5.0,64,0.00,,,0.00,meteohub,2013-06-11 00:06:00,
2013-06-10 19:11:00,73.6,61.2,30.03,East,90,2.0,5.0,65,0.00,,,0.00,meteohub,2013-06-11 00:11:00,
2013-06-10 19:16:00,73.6,61.5,30.03,East,90,6.0,6.0,66,0.00,,,0.00,meteohub,2013-06-11 00:16:00,
2013-06-10 19:21:00,73.4,61.3,30.03,SE,135,4.0,6.0,66,0.00,,,0.00,meteohub,2013-06-11 00:21:00,
2013-06-10 19:26:00,73.4,61.3,30.03,South,180,2.0,6.0,66,0.00,,,0.00,meteohub,2013-06-11 00:26:00,
2013-06-10 19:31:00,73.2,61.5,30.03,South,180,4.0,6.0,67,0.00,,,0.00,meteohub,2013-06-11 00:31:00,
2013-06-10 19:36:00,73.2,61.2,30.03,South,180,4.0,5.0,66,0.00,,,0.00,meteohub,2013-06-11 00:36:00,
2013-06-10 19:41:00,72.9,60.8,30.03,SE,135,2.0,5.0,66,0.00,,,0.00,meteohub,2013-06-11 00:41:00,
2013-06-10 19:46:00,72.9,61.3,30.03,West,270,1.0,5.0,67,0.00,,,0.00,meteohub,2013-06-11 00:46:00,
2013-06-10 19:51:00,72.7,61.5,30.02,East,90,3.0,4.0,68,0.00,,,0.00,meteohub,2013-06-11 00:51:00,
2013-06-10 19:56:00,72.5,61.0,30.03,East,90,4.0,4.0,67,0.00,,,0.00,meteohub,2013-06-11 00:56:00,
2013-06-10 20:01:00,72.5,61.3,30.03,SE,135,2.0,4.0,68,0.00,,,0.00,meteohub,2013-06-11 01:01:00,
2013-06-10 20:06:00,72.1,61.0,30.02,East,90,2.0,4.0,68,0.00,,,0.00,meteohub,2013-06-11 01:06:00,
2013-06-10 20:12:00,72.0,60.8,30.03,SE,135,2.0,4.0,68,0.00,,,0.00,meteohub,2013-06-11 01:12:00,
2013-06-10 20:17:00,71.8,60.6,30.03,South,180,2.0,4.0,68,0.00,,,0.00,meteohub,2013-06-11 01:17:00,
2013-06-10 20:22:00,71.6,60.8,30.03,SE,135,2.0,3.0,69,0.00,,,0.00,meteohub,2013-06-11 01:22:00,
2013-06-10 20:27:00,71.4,61.2,30.04,SE,135,4.0,4.0,70,0.00,,,0.00,meteohub,2013-06-11 01:27:00,
2013-06-10 20:32:00,71.1,61.2,30.03,East,90,3.0,4.0,71,0.00,,,0.00,meteohub,2013-06-11 01:32:00,
2013-06-10 20:37:00,70.7,60.8,30.03,East,90,3.0,4.0,71,0.00,,,0.00,meteohub,2013-06-11 01:37:00,
2013-06-10 20:42:00,70.5,60.6,30.03,East,90,3.0,4.0,71,0.00,,,0.00,meteohub,2013-06-11 01:42:00,
2013-06-10 20:47:00,70.3,60.4,30.03,SE,135,1.0,3.0,71,0.00,,,0.00,meteohub,2013-06-11 01:47:00,
2013-06-10 20:52:00,70.2,60.6,30.03,SE,135,2.0,3.0,72,0.00,,,0.00,meteohub,2013-06-11 01:52:00,
2013-06-10 20:57:00,70.0,60.6,30.02,East,90,1.0,3.0,72,0.00,,,0.00,meteohub,2013-06-11 01:57:00,
2013-06-10 21:02:00,70.0,60.6,30.03,SE,135,0.0,2.0,72,0.00,,,0.00,meteohub,2013-06-11 02:02:00,
2013-06-10 21:07:00,70.0,60.6,30.03,SE,135,0.0,2.0,72,0.00,,,0.00,meteohub,2013-06-11 02:07:00,
2013-06-10 21:12:00,69.3,60.6,30.03,East,90,1.0,2.0,74,0.00,,,0.00,meteohub,2013-06-11 02:12:00,
2013-06-10 21:17:00,69.1,60.8,30.03,SE,135,0.0,2.0,75,0.00,,,0.00,meteohub,2013-06-11 02:17:00,
2013-06-10 21:22:00,68.5,60.6,30.04,SE,135,1.0,2.0,76,0.00,,,0.00,meteohub,2013-06-11 02:22:00,
2013-06-10 21:27:00,68.2,60.3,30.03,SE,135,1.0,2.0,76,0.00,,,0.00,meteohub,2013-06-11 02:27:00,
2013-06-10 21:32:00,68.0,60.4,30.04,East,90,1.0,1.0,77,0.00,,,0.00,meteohub,2013-06-11 02:32:00,
2013-06-10 21:37:00,67.8,61.0,30.04,East,90,1.0,2.0,79,0.00,,,0.00,meteohub,2013-06-11 02:37:00,
2013-06-10 21:42:00,67.6,61.0,30.04,East,90,0.0,2.0,79,0.00,,,0.00,meteohub,2013-06-11 02:42:00,
2013-06-10 21:47:00,67.3,61.0,30.04,East,90,1.0,2.0,80,0.00,,,0.00,meteohub,2013-06-11 02:47:00,
2013-06-10 21:53:00,67.1,61.2,30.04,SE,135,1.0,2.0,81,0.00,,,0.00,meteohub,2013-06-11 02:53:00,
2013-06-10 21:58:00,66.9,61.0,30.04,SE,135,1.0,1.0,81,0.00,,,0.00,meteohub,2013-06-11 02:58:00,
2013-06-10 22:03:00,66.6,60.6,30.05,SE,135,0.0,1.0,81,0.00,,,0.00,meteohub,2013-06-11 03:03:00,
2013-06-10 22:08:00,66.0,60.6,30.04,East,90,0.0,1.0,83,0.00,,,0.00,meteohub,2013-06-11 03:08:00,
2013-06-10 22:13:00,65.7,60.4,30.05,East,90,0.0,1.0,83,0.00,,,0.00,meteohub,2013-06-11 03:13:00,
2013-06-10 22:18:00,65.3,60.3,30.05,SE,135,0.0,1.0,84,0.00,,,0.00,meteohub,2013-06-11 03:18:00,
2013-06-10 22:23:00,64.9,59.9,30.05,SE,135,0.0,1.0,84,0.00,,,0.00,meteohub,2013-06-11 03:23:00,
2013-06-10 22:28:00,64.6,59.9,30.06,SE,135,0.0,0.0,85,0.00,,,0.00,meteohub,2013-06-11 03:28:00,
2013-06-10 22:33:00,64.2,59.5,30.06,SE,135,0.0,0.0,85,0.00,,,0.00,meteohub,2013-06-11 03:33:00,
2013-06-10 22:38:00,64.0,59.7,30.06,SE,135,0.0,0.0,86,0.00,,,0.00,meteohub,2013-06-11 03:38:00,
2013-06-10 22:43:00,63.9,59.5,30.06,SE,135,0.0,0.0,86,0.00,,,0.00,meteohub,2013-06-11 03:43:00,
2013-06-10 22:48:00,63.9,59.9,30.06,SE,135,0.0,0.0,87,0.00,,,0.00,meteohub,2013-06-11 03:48:00,
2013-06-10 22:53:00,63.7,59.7,30.06,SE,135,0.0,0.0,87,0.00,,,0.00,meteohub,2013-06-11 03:53:00,
2013-06-10 22:58:00,63.7,60.1,30.06,SE,135,0.0,0.0,88,0.00,,,0.00,meteohub,2013-06-11 03:58:00,
2013-06-10 23:02:00,63.7,60.1,30.06,SE,135,0.0,0.0,88,0.00,,,0.00,meteohub,2013-06-11 04:02:00,
2013-06-10 23:03:00,63.7,60.1,30.06,SE,135,0.0,0.0,88,0.00,,,0.00,meteohub,2013-06-11 04:03:00,
2013-06-10 23:05:00,63.7,60.1,30.06,SE,135,0.0,0.0,88,0.00,,,0.00,meteohub,2013-06-11 04:05:00,
2013-06-10 23:06:00,63.7,60.1,30.06,SE,135,0.0,0.0,88,0.00,,,0.00,meteohub,2013-06-11 04:06:00,
2013-06-10 23:11:00,63.1,59.5,30.06,SE,135,0.0,0.0,88,0.00,,,0.00,meteohub,2013-06-11 04:11:00,
2013-06-10 23:16:00,63.0,59.4,30.06,SE,135,0.0,0.0,88,0.00,,,0.00,meteohub,2013-06-11 04:16:00,
2013-06-10 23:22:00,62.6,59.0,30.06,East,90,1.0,1.0,88,0.00,,,0.00,meteohub,2013-06-11 04:22:00,
2013-06-10 23:27:00,62.6,59.4,30.06,North,0,1.0,1.0,89,0.00,,,0.00,meteohub,2013-06-11 04:27:00,
2013-06-10 23:32:00,62.4,59.4,30.05,East,90,0.0,1.0,90,0.00,,,0.00,meteohub,2013-06-11 04:32:00,
2013-06-10 23:37:00,62.2,59.2,30.06,SE,135,0.0,1.0,90,0.00,,,0.00,meteohub,2013-06-11 04:37:00,
2013-06-10 23:42:00,62.4,59.7,30.05,East,90,1.0,1.0,91,0.00,,,0.00,meteohub,2013-06-11 04:42:00,
2013-06-10 23:47:00,62.4,59.7,30.05,SE,135,1.0,2.0,91,0.00,,,0.00,meteohub,2013-06-11 04:47:00,
2013-06-10 23:52:00,62.4,59.7,30.05,SE,135,1.0,2.0,91,0.00,,,0.00,meteohub,2013-06-11 04:52:00,
2013-06-10 23:57:00,62.6,59.5,30.05,SE,135,1.0,2.0,90,0.00,,,0.00,meteohub,2013-06-11 04:57:00,